[[{"header":{"parameterUnit":"m.s-1","parameterCategory":1,"la1":30.2991,"la2":30.254,"lo1":-89.0895,"lo2":-89.0444,"dy":0.0017,"dx":0.0017,"nx":28,"ny":28,"refTime":"2023-08-21T21:00:00:Z","depth":0,"parameterNumber":2,"parameterNumberName":"U-component_of_WINDS"},"data":[0,0,0,0,0,0,0,0,0,0,0,0,0,0,0,0,0,0,0,0,0,0,0,0,0,0,0,0,0,0,0,0,0,0,0,0,0,0,0,0,0,0,0,0,0,0,0,0,0,0,0,0,0,0,0,0,0,0,-6.3151,-6.3151,0,-6.3134,-6.3134,-6.3133,-6.3004,-6.3001,-6.2998,-6.2995,-6.2978,-6.2981,-6.2983,0,0,0,0,0,0,0,0,0,0,0,0,0,-6.3075,-6.3077,-6.3151,-6.3151,-6.3151,-6.3134,-6.3134,-6.3133,-6.3005,-6.3001,-6.2997,-6.2993,-6.2978,-6.2981,-6.2984,0,0,0,0,0,0,0,0,0,0,0,0,0,-6.3088,-6.3078,-6.3151,-6.3084,-6.3078,-6.3134,-6.3134,-6.3133,-6.3006,-6.3001,-6.2996,-6.2992,-6.2977,-6.298,-6.2984,-6.3103,0,0,-6.2996,-6.2997,0,0,0,0,0,0,0,0,-6.3088,-6.3091,-6.3094,-6.3089,-6.3082,-6.3066,-6.3101,-6.3123,-6.3007,-6.3033,-6.2995,-6.2989,-6.3012,-6.3012,-6.3019,-6.3102,-6.3101,-6.2996,-6.2998,-6.3,-6.3001,0,0,0,0,0,0,0,-6.3087,-6.3091,-6.3144,-6.3095,-6.3087,-6.3056,-6.3053,-6.3104,-6.3049,-6.303,-6.3021,-6.3021,-6.3007,-6.3016,-6.3018,-6.3101,-6.2996,-6.2999,-6.3001,-6.3003,-6.3282,-6.3287,0,0,0,0,0,0,-6.3095,-6.3091,-6.3145,-6.3144,-6.3073,-6.3062,-6.3058,-6.3076,-6.3048,-6.304,-6.3025,-6.3015,-6.3012,-6.3014,-6.3017,-6.3154,-6.3,-6.3003,-6.3005,-6.3277,-6.3283,-6.3289,0,0,0,0,0,0,-6.3094,-6.3101,-6.3145,-6.3115,-6.3118,-6.3068,-6.309,-6.3078,-6.3087,-6.3044,-6.3034,-6.3044,-6.3008,-6.3012,-6.3083,-6.3152,-6.3005,-6.3008,-6.3271,-6.3279,-6.3286,-6.343,0,0,0,0,0,0,-6.3092,-6.3101,-6.3145,-6.3117,-6.312,-6.3211,-6.3094,-6.3082,-6.3094,-6.308,-6.3059,-6.3051,-6.3005,-6.3078,-6.3087,-6.3154,-6.3011,-6.3265,-6.3275,-6.3284,-6.3419,-6.3442,-6.3462,0,0,0,0,0,-6.309,-6.3186,-6.3148,-6.3155,-6.3174,-6.3215,-6.3217,-6.3161,-6.31,-6.3144,-6.3117,-6.3052,-6.3144,-6.3086,-6.3095,-6.3165,-6.326,-6.3272,-6.3283,-6.3409,-6.3437,-6.3461,0,0,0,0,0,0,-6.3223,-6.3181,-6.3138,-6.3227,-6.3226,-6.3193,-6.3246,-6.3193,-6.3208,-6.3195,-6.3127,-6.3123,-6.3205,-6.3192,-6.3129,-6.328,-6.3191,-6.3205,-6.3284,-6.331,-6.3331,-6.3331,-6.3015,0,0,0,0,0,-6.3263,-6.3299,-6.3261,-6.3344,-6.3345,-6.3297,-6.3312,-6.327,-6.3266,-6.3264,-6.3242,-6.3241,-6.327,-6.329,-6.3314,-6.3418,-6.3412,-6.3471,-6.3492,-6.351,-6.3522,-6.3577,-6.3603,-6.3327,-6.3327,-6.3327,0,0,-6.3344,-6.3326,-6.3353,-6.337,-6.3363,-6.3403,-6.3296,-6.3343,-6.3372,-6.3271,-6.3336,-6.3322,-6.3316,-6.3404,-6.3442,-6.3396,-6.3598,-6.3525,-6.3539,-6.3541,-6.3592,-6.3618,-6.3642,-6.3335,-6.3333,-6.3332,0,0,-6.3514,-6.3504,-6.3572,-6.3569,-6.3561,-6.3529,-6.3546,-6.3522,-6.3508,-6.3573,-6.3499,-6.3534,-6.3584,-6.3584,-6.359,-6.3765,-6.3705,-6.3775,-6.3885,-6.394,-6.3961,-6.398,-6.4042,-6.4065,-6.3788,-6.3788,-6.3788,0,-6.3616,-6.3673,-6.3614,-6.3666,-6.3676,-6.3588,-6.3658,-6.3658,-6.3659,-6.3668,-6.3617,-6.3681,-6.3671,-6.3758,-6.3801,-6.381,-6.3827,-6.3775,-6.3963,-6.3981,-6.3998,-6.4056,-6.408,-6.3796,-6.3795,-6.3794,-6.3794,0,-6.38,-6.3841,-6.3897,-6.39,-6.3917,-6.3978,-6.393,-6.3954,-6.3913,-6.3886,-6.3955,-6.3941,-6.3961,-6.3979,-6.3938,-6.4062,-6.4034,-6.3975,-6.3883,-6.4034,-6.4087,-6.4109,-6.3808,-6.3805,-6.3803,-6.3801,0,0,-6.4047,-6.4021,-6.4042,-6.4043,-6.4031,-6.4062,-6.412,-6.414,-6.4163,-6.4168,-6.4215,-6.4262,-6.4208,-6.4215,-6.4174,-6.4223,-6.4363,-6.4157,-6.4156,-6.4195,-6.4499,-6.4542,-6.4569,-6.4325,-6.4329,-6.4332,-6.4499,0,-6.4209,-6.4305,-6.4256,-6.4359,-6.4396,-6.4316,-6.4367,-6.4366,-6.4345,-6.4374,-6.4351,-6.4385,-6.4311,-6.4315,-6.436,-6.4336,-6.4422,-6.4324,-6.4368,-6.437,-6.4369,-6.4597,-6.4642,-6.4799,-6.452,-6.4523,-6.4526,0,-6.4409,-6.4424,-6.4531,-6.4513,-6.4527,-6.4574,-6.4589,-6.4619,-6.4617,-6.4598,-6.4609,-6.4558,-6.4615,-6.4528,-6.4606,-6.454,-6.4556,-6.4548,-6.4553,-6.4553,-6.4455,-6.4601,-6.4848,-6.4871,-6.4558,-6.4555,-6.4553,0,-6.4578,-6.4625,-6.4695,-6.4699,-6.4681,-6.4715,-6.471,-6.4703,-6.4719,-6.4734,-6.4744,-6.4766,-6.4778,-6.4796,-6.4753,-6.4693,-6.4838,-6.4746,-6.4824,-6.4825,-6.4854,-6.4853,-6.5106,-6.4869,-6.4869,-6.4869,-6.4868,0,-6.4762,-6.483,-6.477,-6.4813,-6.4888,-6.4833,-6.4909,-6.4895,-6.4891,-6.4931,-6.4864,-6.4903,-6.4844,-6.4878,-6.4846,-6.4916,-6.4922,-6.4908,-6.4898,-6.4913,-6.4915,-6.492,-6.4907,-6.4875,-6.4873,-6.4872,-6.4871,0,-6.4961,-6.4924,-6.4995,-6.4974,-6.497,-6.5026,-6.5008,-6.5048,-6.5024,-6.5075,-6.5084,-6.5046,-6.5083,-6.5042,-6.5076,-6.5054,-6.5148,-6.5123,-6.5149,-6.5141,-6.522,-6.5213,-6.5484,-6.5516,-6.5261,-6.5263,-6.5265,0,-6.508,-6.513,-6.5115,-6.5137,-6.5136,-6.5172,-6.5189,-6.5138,-6.5159,-6.5163,-6.5203,-6.5234,-6.5255,-6.5319,-6.5294,-6.532,-6.5294,-6.5388,-6.5297,-6.5311,-6.5294,-6.5291,-6.5296,-6.5405,-6.5408,-6.5411,-6.5413,0,-6.5294,-6.5274,-6.53,-6.5322,-6.5345,-6.5359,-6.5368,-6.5391,-6.5338,-6.5365,-6.5402,-6.542,-6.5455,-6.5487,-6.5507,-6.5502,-6.5449,-6.5442,-6.5461,-6.5475,-6.5487,-6.5481,-6.5197,-6.5435,-6.5433,-6.5431,-6.543,-6.5429,-6.5455,-6.5497,-6.5494,-6.5527,-6.5529,-6.554,-6.5577,-6.5559,-6.5589,-6.5613,-6.5582,-6.5629,-6.5628,-6.565,-6.5651,-6.5687,-6.5647,-6.5675,-6.5682,-6.5689,-6.57,-6.5484,-6.5691,-6.569,-6.569,-6.5689,-6.5689,0,-6.5665,-6.566,-6.5691,-6.5707,-6.5734,-6.5684,-6.5693,-6.5718,-6.5759,-6.5764,-6.5788,-6.5832,-6.5864,-6.5844,-6.5872,-6.5904,-6.5881,-6.5913,-6.5909,-6.5909,-6.5735,-6.5715,-6.5932,-6.5932,-6.5932,-6.5932,-6.5931,-6.5931,-6.5777,-6.5845,-6.5826,-6.5897,-6.5891,-6.5936,-6.5945,-6.5956,-6.5959,-6.6012,-6.6038,-6.6025,-6.6021,-6.6048,-6.6076,-6.607,-6.6082,-6.6123,-6.6108,-6.5945,-6.5921,-6.5898,-6.5879,-6.6127,-6.6127,-6.6278,-6.628,-6.6281]},{"header":{"parameterUnit":"m.s-1","parameterCategory":1,"la1":30.2991,"la2":30.254,"lo1":-89.0895,"lo2":-89.0444,"dy":0.0017,"dx":0.0017,"nx":28,"ny":28,"refTime":"2023-08-21T21:00:00:Z","depth":0,"parameterNumber":3,"parameterNumberName":"V-component_of_WINDS"},"data":[0,0,0,0,0,0,0,0,0,0,0,0,0,0,0,0,0,0,0,0,0,0,0,0,0,0,0,0,0,0,0,0,0,0,0,0,0,0,0,0,0,0,0,0,0,0,0,0,0,0,0,0,0,0,0,0,0,0,2.4624,2.4625,0,2.4664,2.4665,2.4665,2.4757,2.4759,2.4761,2.4762,2.4795,2.4795,2.4794,0,0,0,0,0,0,0,0,0,0,0,0,0,2.4621,2.4621,2.4624,2.4625,2.4625,2.4664,2.4665,2.4665,2.4756,2.4759,2.4761,2.4763,2.4796,2.4795,2.4794,0,0,0,0,0,0,0,0,0,0,0,0,0,2.4638,2.462,2.4624,2.4676,2.4681,2.4664,2.4665,2.4665,2.4756,2.4759,2.4762,2.4764,2.4796,2.4795,2.4793,2.4728,0,0,2.4789,2.4789,0,0,0,0,0,0,0,0,2.4636,2.4638,2.4667,2.4672,2.4678,2.4709,2.4676,2.4686,2.4755,2.4727,2.4762,2.4766,2.4764,2.4765,2.4766,2.4729,2.4731,2.4789,2.4788,2.4788,2.4787,0,0,0,0,0,0,0,2.4635,2.4636,2.464,2.4668,2.4674,2.4695,2.47,2.4678,2.4728,2.473,2.4737,2.474,2.4767,2.4767,2.4768,2.4731,2.4789,2.4788,2.4787,2.4787,2.4644,2.4641,0,0,0,0,0,0,2.4628,2.4635,2.4639,2.4641,2.4664,2.4693,2.4699,2.4696,2.4729,2.4737,2.4738,2.4745,2.4768,2.4769,2.4769,2.4695,2.4788,2.4787,2.4786,2.4647,2.4643,2.464,0,0,0,0,0,0,2.4627,2.4627,2.4637,2.464,2.4643,2.469,2.4685,2.4695,2.4695,2.4736,2.4744,2.4729,2.477,2.4771,2.4738,2.4697,2.4786,2.4785,2.465,2.4646,2.4641,2.4545,0,0,0,0,0,0,2.4627,2.4626,2.4603,2.4639,2.4642,2.4607,2.4683,2.4694,2.4694,2.4703,2.473,2.4737,2.4773,2.474,2.4737,2.4697,2.4784,2.4654,2.4648,2.4643,2.4552,2.4537,2.4525,0,0,0,0,0,2.4626,2.4572,2.4601,2.4601,2.4614,2.4604,2.4606,2.4651,2.469,2.4666,2.4692,2.4736,2.4703,2.4736,2.4733,2.4692,2.4657,2.465,2.4643,2.4558,2.454,2.4526,0,0,0,0,0,0,2.4526,2.4578,2.461,2.4567,2.4581,2.462,2.459,2.4631,2.4631,2.4639,2.4693,2.4698,2.4658,2.4672,2.4708,2.4631,2.4687,2.4679,2.4623,2.4606,2.4593,2.4589,2.4783,0,0,0,0,0,2.45,2.449,2.4534,2.4491,2.4497,2.4543,2.454,2.4574,2.4589,2.4594,2.4618,2.4629,2.4622,2.4615,2.4611,2.4556,2.4562,2.4526,2.4513,2.4502,2.4494,2.4466,2.445,2.4618,2.4618,2.4618,0,0,2.4444,2.4471,2.446,2.4472,2.4487,2.4473,2.4547,2.4528,2.4518,2.4591,2.4562,2.458,2.4596,2.4552,2.4534,2.4563,2.445,2.4493,2.4484,2.4482,2.4457,2.4441,2.4427,2.4613,2.4614,2.4615,0,0,2.4335,2.4354,2.4321,2.4336,2.4359,2.439,2.4382,2.4416,2.4431,2.4404,2.4459,2.4447,2.4432,2.4442,2.4445,2.4343,2.4382,2.434,2.4269,2.4241,2.4228,2.4216,2.4179,2.4165,2.4332,2.4332,2.4332,0,2.4261,2.4244,2.4298,2.4278,2.4281,2.435,2.4316,2.4327,2.4345,2.4345,2.4379,2.4364,2.4379,2.4339,2.4314,2.4315,2.4306,2.4335,2.4226,2.4215,2.4205,2.417,2.4156,2.4326,2.4327,2.4328,2.4328,0,2.4153,2.414,2.4111,2.4131,2.4131,2.4103,2.4151,2.4145,2.418,2.4207,2.4178,2.4201,2.4202,2.4195,2.4227,2.4159,2.4176,2.4217,2.4274,2.4183,2.415,2.4137,2.4319,2.4321,2.4322,2.4324,0,0,2.3977,2.4031,2.4019,2.4029,2.4061,2.4052,2.4028,2.4032,2.4025,2.4037,2.4016,2.4005,2.4043,2.4047,2.4081,2.4057,2.3974,2.4101,2.4102,2.4075,2.3899,2.3866,2.385,2.4002,2.4,2.3998,2.3897,0,2.3874,2.3838,2.3887,2.3838,2.3828,2.3895,2.3874,2.389,2.3916,2.3909,2.3937,2.3927,2.398,2.3982,2.3962,2.3988,2.3939,2.3997,2.3981,2.398,2.3973,2.3833,2.3798,2.3702,2.3885,2.3883,2.3881,0,2.3747,2.3756,2.3708,2.3745,2.3742,2.3722,2.3731,2.3725,2.3744,2.3765,2.377,2.3813,2.3791,2.3848,2.3817,2.3855,2.3853,2.3865,2.3862,2.386,2.3923,2.3825,2.3672,2.3657,2.3862,2.3864,2.3865,0,2.3623,2.3623,2.3594,2.3601,2.3644,2.3628,2.3645,2.3669,2.3668,2.3676,2.3676,2.3679,2.368,2.3682,2.3724,2.3762,2.3687,2.3748,2.3701,2.37,2.3679,2.3679,2.3521,2.3681,2.3681,2.3682,2.3682,0,2.3501,2.3468,2.3539,2.3521,2.3486,2.3543,2.3507,2.353,2.3551,2.3537,2.3596,2.3581,2.3639,2.363,2.3663,2.3632,2.3632,2.3647,2.3655,2.364,2.3638,2.3637,2.3643,2.3678,2.3679,2.3679,2.368,0,2.3354,2.3401,2.3374,2.3418,2.3429,2.3401,2.3438,2.3422,2.3454,2.3436,2.3435,2.3482,2.3475,2.3519,2.3519,2.3541,2.3493,2.3514,2.3486,2.3492,2.3442,2.3445,2.3276,2.3256,2.343,2.3428,2.3427,0,2.3272,2.3249,2.3292,2.3289,2.3303,2.3297,2.3298,2.3354,2.3352,2.3375,2.3356,2.3355,2.3357,2.3343,2.3376,2.3376,2.3397,2.3338,2.3397,2.3383,2.3394,2.3394,2.3391,2.3324,2.3321,2.332,2.3318,0,2.312,2.3146,2.3147,2.3157,2.3158,2.3167,2.318,2.3173,2.3234,2.3229,2.3225,2.3226,2.3229,2.3226,2.3234,2.3249,2.3292,2.33,2.3289,2.3272,2.3256,2.3263,2.345,2.3303,2.3304,2.3305,2.3306,2.3307,2.3003,2.2986,2.3014,2.3014,2.303,2.3042,2.303,2.3061,2.3059,2.3067,2.31,2.3089,2.3111,2.3127,2.3139,2.313,2.3158,2.3142,2.3138,2.3132,2.3123,2.326,2.3132,2.3132,2.3133,2.3133,2.3133,0,2.2853,2.2876,2.2875,2.2893,2.2893,2.2939,2.2956,2.2952,2.2943,2.2961,2.2963,2.2958,2.2956,2.2991,2.2994,2.298,2.3,2.2978,2.2979,2.2981,2.3098,2.3107,2.2962,2.2962,2.2962,2.2962,2.2962,2.2962,2.2775,2.2749,2.2778,2.276,2.2783,2.2775,2.2781,2.2792,2.2807,2.2799,2.28,2.2824,2.2848,2.2854,2.2854,2.2864,2.2861,2.2832,2.2849,2.2956,2.2973,2.2989,2.2997,2.2832,2.2832,2.2733,2.2732,2.2731]}]]